Regional Weather Roundup
Issued by NWS

Home | Current Version | Previous Version | Graphics & Text | Print | Product List | Glossary On
Versions: 1 2 3 4 5 6 7 8 9 10 11 12 13 14 15 16 17 18 19 20 21 22 23 24 25 26 27 28 29 30 31 32 33 34 35 36 37 38 39 40 41 42 43 44 45 46 47
000
ASUS45 KBOU 231507
RWRCO

WEATHER ROUNDUP FOR COLORADO
NATIONAL WEATHER SERVICE DENVER/BOULDER CO
900 AM MDT WED JUL 23 2014

NOTE: "FAIR" INDICATES FEW OR NO CLOUDS BELOW 12000 FEET WITH NO
SIGNIFICANT WEATHER AND/OR OBSTRUCTIONS TO VISIBILITY.

COZ001>005-013-030-031-231600-
...NORTHWEST COLORADO...

CITY           SKY/WX    TMP DP  RH WIND       PRES   REMARKS
CRAIG          SUNNY     71  43  36 NE14      30.38S
HAYDEN         SUNNY     73  41  31 E8        30.42R
MEEKER         SUNNY     64  44  48 VRB3      30.40R
MOUNT WERNER   NOT AVBL
STEAMBOAT SPGS SUNNY     67  44  43 MISG      30.45S
WALDEN         SUNNY     64  43  45 S3        30.55F
$$

COZ006>008-011-231600-
...WEST CENTRAL VALLEYS...

CITY           SKY/WX    TMP DP  RH WIND       PRES   REMARKS
GRAND JUNCTION SUNNY     83  38  20 SE16      30.27R
MONTROSE       MOSUNNY   82  44  26 SE3       30.37S
EAGLE          SUNNY     64  43  45 CALM      30.48F
RIFLE          SUNNY     73  44  35 NW3       30.34F
DELTA          MOSUNNY   82  42  24 S3        30.33S
NUCLA          MOSUNNY   77  39  25 SE3       30.41S
$$

COZ017>023-064>068-231600-
...SOUTHWEST COLORADO...

CITY           SKY/WX    TMP DP  RH WIND       PRES   REMARKS
DURANGO        SUNNY     73  48  41 NE3       30.46R
CORTEZ         SUNNY     82  44  26 CALM      30.38S
PAGOSA SPRINGS SUNNY     71  41  34 CALM      30.55S
TELLURIDE      MOSUNNY   72  43  35 CALM      30.63S
WOLF CREEK PAS NOT AVBL
$$

COZ009-010-012-014-032>034-037-058>063-231600-
...CENTRAL COLORADO...

CITY           SKY/WX    TMP DP  RH WIND       PRES   REMARKS
ASPEN          SUNNY     74  43  32 CALM      30.52F
BUENA VISTA    SUNNY     66  42  42 CALM      30.59F
COPPER MTN     SUNNY     61  36  39 S18       30.90R
BERTHOUD PASS  FAIR      54  39  58 MISG      30.96R
COTTONWOOD PAS SUNNY     70  37  30 CALM      30.73S
GUNNISON       MOSUNNY   66  45  45 N5        30.58F
KREMMLING      SUNNY     64  39  39 CALM      30.54F
LEADVILLE      SUNNY     60  40  47 VRB3      30.72S
MONARCH PASS   SUNNY     59  37  44 S6        31.00S
SALIDA         SUNNY    N/A N/A N/A CALM      30.64S
SUNLIGHT       SUNNY     66  36  32 CALM      30.80R
WILKERSON PASS SUNNY     59  39  47 S6        30.88S
$$

COZ069>075-231600-
...SAN LUIS VALLEY/SANGRE DE CRISTO MOUNTAINS...

CITY           SKY/WX    TMP DP  RH WIND       PRES   REMARKS
ALAMOSA        SUNNY     67  48  50 CALM      30.55S
LA VETA PASS   SUNNY     68  43  40 E8        30.75S
SAGUACHE       SUNNY     70  43  37 NW7       30.58S
$$

COZ035-036-038>040-231600-
...NORTHERN COLORADO FRONT RANGE...

CITY           SKY/WX    TMP DP  RH WIND       PRES   REMARKS
DENVER INTL AP MOSUNNY   73  62  68 NW9       30.36S
DMNS CITY PARK   N/A     75  62  64 N3        30.35F
AURORA         MOSUNNY   72  61  67 NW3       30.39S
FRONT RANGE AP MOSUNNY   75  64  69 W5        30.37
ERIE MUNI ARPT CLOUDY    69  63  83 NE6       30.36R
BOULDER MUN AP   N/A     70  63  78 MISG        N/A
CENTENNIAL     MOSUNNY   74  51  44 VRB3      30.39S
BROOMFIELD     MOSUNNY   72  63  73 N5        30.38S
FORT COLLINS   PTSUNNY   68  63  83 NE12      30.38R
LONGMONT       PTSUNNY   74  64  71 NE8       30.37R
$$

COZ041-046-047-076>085-087-088-231600-
...PIKES PEAK/PALMER DIVIDE AND SOUTHERN FOOTHILLS...

CITY           SKY/WX    TMP DP  RH WIND       PRES   REMARKS
COLO. SPRINGS  MOSUNNY   79  50  36 CALM      30.43S
A. F. ACADEMY  SUNNY     77  46  33 CALM      30.45F
ELLICOTT       SUNNY     81  53  37 S9        30.41S
FALCON         SUNNY     79  51  38 SW3       30.49F
FORT CARSON    SUNNY     79  49  35 N5        30.40
LIMON          SUNNY     74  62  66 SE12      30.38S
MONUMENT HILL  MOSUNNY   79  45  29 S6        30.48S
TRINIDAD       SUNNY     79  51  37 W8        30.40S
$$

COZ042>045-048>051-090-091-231600-
...NORTHEAST COLORADO...

CITY           SKY/WX    TMP DP  RH WIND       PRES   REMARKS
GREELEY ARPT   CLOUDY    66  57  72 E9        30.36S
AKRON          CLOUDY    68  65  90 E17       30.36R FOG
BURLINGTON     CLOUDY    71  66  84 SE12G17   30.32R
WRAY             N/A    N/A N/A N/A E13G22    30.35F
STERLING       CLOUDY    72  66  83 E14G21    30.34S
HOLYOKE        CLOUDY    66  63  88 SE12      30.35F FOG
FORT MORGAN    CLOUDY    71  64  77 E15       30.36S
$$

COZ086-089-092>099-231600-
...SOUTHEAST COLORADO...

CITY           SKY/WX    TMP DP  RH WIND       PRES   REMARKS
PUEBLO         SUNNY     76  57  51 CALM      30.32S
LA JUNTA       SUNNY     77  57  50 CALM      30.30S
LAMAR          SUNNY     79  64  60 NE7       30.25S
SPRINGFIELD      N/A     84  62  47 SW10      30.30F
$$


USA.gov is the U.S. government's official web portal to all federal, state and local government web resources and services.